Flag for Puerto Rico Weather past 2 weeks in San Juan, Puerto Rico

Now
81 °F

Partly cloudy.


Feels Like: 88 °F
Forecast: 81 / 87 °F
Wind: 7 mph from East

Location: Luis Munoz Marin

Current Time: Aug 30, 2015 at 4:23:05 AM

Latest Report: Aug 30, 2015 at 3:56 AM


Visibility: 10 mi

Pressure: 29.96 "Hg

Humidity: 88%

Dew point: 77 °F

Location of San JuanLocation

Historic Weather in San Juan — Graph

°F

San Juan temperature yesterday

Maximum temperature yesterday: 89 °F (at 11:56 AM)
Minimum temperature yesterday: 81 °F (at 3:56 AM)
Average temperature yesterday: 84 °F

Past Weeks' High & Low Weather Summary

 TemperatureHumidityPressure
High89 °F (Aug 16, 10:56 AM)100% (Aug 16, 2:56 PM)30.06 "Hg (Aug 16, 2:56 PM)
Low74 °F (Aug 17, 5:56 AM)60% (Aug 28, 6:56 AM)29.84 "Hg (Aug 27, 4:56 PM)
Average82 °F85%29.97 "Hg
* Reported Aug 15 2:56 AM — Aug 30 2:56 AM, San Juan, Weather by CustomWeather, © 2015

Note: Actual official high and low records may vary slightly from our data, if they occured in-between our weather recording intervals... More about our weather records

Advertising

San Juan weather history for previous 24 hours

 ConditionsComfort  
Time TempWeatherWind HumidityBarometerVisibility
2:56 AM
Sun, Aug 30
82 °FPassing clouds.12 mph82%29.97 "Hg10 mi
1:56 AM82 °FPassing clouds.9 mph82%29.98 "Hg10 mi
12:56 AM82 °FPassing clouds.8 mph82%29.99 "Hg10 mi
11:56 PM
Sat, Aug 29
82 °FPassing clouds.9 mph79%30.01 "Hg10 mi
10:56 PM83 °FPassing clouds.8 mph77%30.02 "Hg10 mi
9:56 PM83 °FPassing clouds.10 mph74%30.02 "Hg10 mi
8:56 PM83 °FPassing clouds.12 mph74%30.02 "Hg10 mi
7:56 PM83 °FPassing clouds.13 mph74%30.00 "Hg10 mi
6:56 PM84 °FScattered clouds.14 mph72%29.99 "Hg10 mi
5:56 PM85 °FScattered clouds.15 mph72%29.98 "Hg10 mi
4:56 PM87 °FScattered clouds.15 mph69%29.97 "Hg10 mi
3:56 PM87 °FScattered clouds.18 mph72%29.97 "Hg10 mi
2:56 PM87 °FScattered clouds.17 mph69%29.99 "Hg10 mi
1:56 PM88 °FScattered clouds.16 mph65%30.01 "Hg10 mi
12:56 PM89 °FScattered clouds.15 mph65%30.03 "Hg10 mi
11:56 AM89 °FScattered clouds.14 mph65%30.04 "Hg10 mi
10:56 AM88 °FScattered clouds.17 mph65%30.05 "Hg10 mi
9:56 AM87 °FScattered clouds.14 mph65%30.06 "Hg10 mi
8:56 AM86 °FScattered clouds.13 mph65%30.05 "Hg10 mi
7:56 AM84 °FScattered clouds.7 mph74%30.03 "Hg10 mi
6:56 AM81 °FPassing clouds.No wind82%30.02 "Hg10 mi
5:56 AM81 °FPartly cloudy.3 mph82%30.01 "Hg10 mi
4:56 AM81 °FPassing clouds.No wind82%30.00 "Hg10 mi
Weather by CustomWeather, © 2015

See weather overviewHow to use our weather pages